Wetterdaten: Dienstag, 01.10.2013
Datum Zeit Temperatur Luftfeuchte Luftdruck Regen Wind Richtung Richtung Taupunkt Windchill Windben
01.10.2013 00:00 7,7 C 96 % 1011,3 hPa 0,0 l/m 0,0 km/h (0 Bft) N-NW 337 7,1 C 7,9 C 0,0 km/h (0 Bft)
01.10.2013 00:05 7,7 C 96 % 1011,2 hPa 0,0 l/m 0,0 km/h (0 Bft) W-NW 292 7,1 C 7,9 C 0,0 km/h (0 Bft)
01.10.2013 00:10 7,7 C 96 % 1011,2 hPa 0,0 l/m 0,0 km/h (0 Bft) W-NW 292 7,1 C 7,9 C 0,0 km/h (0 Bft)
01.10.2013 00:15 7,7 C 96 % 1011,2 hPa 0,0 l/m 0,0 km/h (0 Bft) W 270 7,1 C 7,9 C 0,0 km/h (0 Bft)
01.10.2013 00:20 7,8 C 96 % 1011,2 hPa 0,0 l/m 0,0 km/h (0 Bft) W-SW 247 7,2 C 7,9 C 0,0 km/h (0 Bft)
01.10.2013 00:25 7,8 C 96 % 1011,4 hPa 0,0 l/m 0,0 km/h (0 Bft) S-SW 202 7,2 C 8,0 C 0,0 km/h (0 Bft)
01.10.2013 00:30 7,8 C 96 % 1011,4 hPa 0,0 l/m 0,0 km/h (0 Bft) S 180 7,2 C 8,0 C 0,0 km/h (0 Bft)
01.10.2013 00:35 7,8 C 96 % 1011,4 hPa 0,0 l/m 0,0 km/h (0 Bft) W-NW 292 7,2 C 8,0 C 0,0 km/h (0 Bft)
01.10.2013 00:40 7,8 C 96 % 1011,4 hPa 0,0 l/m 0,0 km/h (0 Bft) W 270 7,2 C 8,0 C 0,0 km/h (0 Bft)
01.10.2013 00:45 7,8 C 96 % 1011,3 hPa 0,0 l/m 0,0 km/h (0 Bft) N 360 7,2 C 8,0 C 0,0 km/h (0 Bft)
01.10.2013 00:50 7,7 C 96 % 1011,3 hPa 0,0 l/m 0,0 km/h (0 Bft) N-NW 337 7,1 C 8,0 C 0,0 km/h (0 Bft)
01.10.2013 00:55 7,8 C 96 % 1011,3 hPa 0,0 l/m 0,0 km/h (0 Bft) W 270 7,2 C 8,0 C 0,0 km/h (0 Bft)
01.10.2013 01:00 7,8 C 96 % 1011,3 hPa 0,0 l/m 0,0 km/h (0 Bft) W-NW 292 7,2 C 8,0 C 0,0 km/h (0 Bft)
01.10.2013 01:05 7,9 C 96 % 1011,3 hPa 0,0 l/m 0,0 km/h (0 Bft) W 270 7,3 C 8,1 C 0,0 km/h (0 Bft)
01.10.2013 01:10 7,9 C 96 % 1011,3 hPa 0,0 l/m 0,0 km/h (0 Bft) W-SW 247 7,3 C 8,1 C 0,0 km/h (0 Bft)
01.10.2013 01:15 7,9 C 96 % 1011,3 hPa 0,0 l/m 0,0 km/h (0 Bft) N-NW 337 7,3 C 8,2 C 0,0 km/h (0 Bft)
01.10.2013 01:20 7,9 C 96 % 1011,3 hPa 0,0 l/m 0,0 km/h (0 Bft) W-NW 292 7,3 C 8,1 C 0,0 km/h (0 Bft)
01.10.2013 01:25 7,8 C 96 % 1011,2 hPa 0,0 l/m 0,0 km/h (0 Bft) NO 45 7,2 C 8,1 C 0,0 km/h (0 Bft)
01.10.2013 01:30 7,8 C 96 % 1011,2 hPa 0,0 l/m 0,2 km/h (0 Bft) N-NO 22 7,2 C 8,1 C 0,0 km/h (0 Bft)
01.10.2013 01:35 7,8 C 96 % 1011,2 hPa 0,0 l/m 0,2 km/h (0 Bft) W 270 7,2 C 8,1 C 1,9 km/h (1 Bft)
01.10.2013 01:40 7,9 C 96 % 1011,2 hPa 0,0 l/m 0,0 km/h (0 Bft) W-NW 292 7,3 C 8,1 C 0,0 km/h (0 Bft)
01.10.2013 01:45 7,9 C 96 % 1011,3 hPa 0,0 l/m 0,0 km/h (0 Bft) N-NW 337 7,3 C 8,1 C 0,0 km/h (0 Bft)
01.10.2013 01:50 7,9 C 96 % 1011,3 hPa 0,0 l/m 0,0 km/h (0 Bft) N-NW 337 7,3 C 8,1 C 0,0 km/h (0 Bft)
01.10.2013 01:55 7,8 C 96 % 1011,3 hPa 0,0 l/m 0,5 km/h (0 Bft) S-SW 202 7,2 C 8,1 C 2,7 km/h (1 Bft)
01.10.2013 02:00 7,8 C 96 % 1011,3 hPa 0,0 l/m 0,5 km/h (0 Bft) W 270 7,2 C 8,1 C 0,0 km/h (0 Bft)
01.10.2013 02:05 7,9 C 96 % 1011,3 hPa 0,0 l/m 0,2 km/h (0 Bft) S-SW 202 7,3 C 8,1 C 0,0 km/h (0 Bft)
01.10.2013 02:10 7,9 C 96 % 1011,3 hPa 0,0 l/m 0,3 km/h (0 Bft) S-SW 202 7,3 C 8,1 C 1,8 km/h (1 Bft)
01.10.2013 02:15 7,9 C 96 % 1011,3 hPa 0,0 l/m 0,6 km/h (0 Bft) S-SW 202 7,3 C 8,1 C 2,9 km/h (1 Bft)
01.10.2013 02:20 7,9 C 96 % 1011,3 hPa 0,0 l/m 0,8 km/h (0 Bft) S-SO 157 7,3 C 8,1 C 1,8 km/h (1 Bft)
01.10.2013 02:25 7,8 C 96 % 1011,4 hPa 0,0 l/m 0,3 km/h (0 Bft) S 180 7,2 C 8,1 C 0,0 km/h (0 Bft)
01.10.2013 02:30 7,8 C 96 % 1011,4 hPa 0,0 l/m 0,2 km/h (0 Bft) W-SW 247 7,2 C 8,1 C 0,0 km/h (0 Bft)
01.10.2013 02:35 7,9 C 96 % 1011,4 hPa 0,0 l/m 0,0 km/h (0 Bft) W-SW 247 7,3 C 8,1 C 0,0 km/h (0 Bft)
01.10.2013 02:40 7,9 C 96 % 1011,4 hPa 0,0 l/m 0,0 km/h (0 Bft) W-SW 247 7,3 C 8,1 C 0,0 km/h (0 Bft)
01.10.2013 02:45 7,9 C 96 % 1011,4 hPa 0,0 l/m 0,0 km/h (0 Bft) S 180 7,3 C 8,1 C 0,0 km/h (0 Bft)
01.10.2013 02:50 7,9 C 96 % 1011,4 hPa 0,0 l/m 0,0 km/h (0 Bft) S 180 7,3 C 8,1 C 0,0 km/h (0 Bft)
01.10.2013 02:55 7,9 C 96 % 1011,4 hPa 0,0 l/m 0,2 km/h (0 Bft) NO 45 7,3 C 8,1 C 1,6 km/h (1 Bft)
01.10.2013 03:00 7,9 C 96 % 1011,4 hPa 0,0 l/m 0,2 km/h (0 Bft) O 90 7,3 C 8,1 C 0,0 km/h (0 Bft)
01.10.2013 03:05 7,9 C 96 % 1011,3 hPa 0,0 l/m 0,2 km/h (0 Bft) O 90 7,3 C 8,1 C 0,0 km/h (0 Bft)
01.10.2013 03:10 7,9 C 96 % 1011,3 hPa 0,0 l/m 0,0 km/h (0 Bft) NO 45 7,3 C 8,1 C 0,0 km/h (0 Bft)
01.10.2013 03:15 8,0 C 96 % 1011,3 hPa 0,0 l/m 0,0 km/h (0 Bft) O-NO 67 7,4 C 8,1 C 0,0 km/h (0 Bft)
01.10.2013 03:20 8,0 C 96 % 1011,3 hPa 0,0 l/m 0,0 km/h (0 Bft) NO 45 7,4 C 8,2 C 0,0 km/h (0 Bft)
01.10.2013 03:25 8,0 C 96 % 1011,3 hPa 0,0 l/m 0,0 km/h (0 Bft) O-NO 67 7,4 C 8,2 C 0,0 km/h (0 Bft)
01.10.2013 03:30 8,1 C 96 % 1011,3 hPa 0,0 l/m 0,0 km/h (0 Bft) NO 45 7,5 C 8,2 C 0,0 km/h (0 Bft)
01.10.2013 03:35 8,1 C 96 % 1011,3 hPa 0,0 l/m 0,0 km/h (0 Bft) N-NO 22 7,5 C 8,2 C 0,0 km/h (0 Bft)
01.10.2013 03:40 8,1 C 96 % 1011,3 hPa 0,0 l/m 0,0 km/h (0 Bft) NO 45 7,5 C 8,3 C 0,0 km/h (0 Bft)
01.10.2013 03:45 8,1 C 96 % 1011,1 hPa 0,0 l/m 0,0 km/h (0 Bft) NO 45 7,5 C 8,3 C 0,0 km/h (0 Bft)
01.10.2013 03:50 8,1 C 96 % 1011,1 hPa 0,0 l/m 0,0 km/h (0 Bft) O-NO 67 7,5 C 8,3 C 0,0 km/h (0 Bft)
01.10.2013 03:55 8,1 C 96 % 1011,1 hPa 0,0 l/m 0,0 km/h (0 Bft) N-NO 22 7,5 C 8,3 C 0,0 km/h (0 Bft)
01.10.2013 04:00 8,1 C 96 % 1011,1 hPa 0,0 l/m 0,0 km/h (0 Bft) N-NO 22 7,5 C 8,4 C 0,0 km/h (0 Bft)
01.10.2013 04:05 8,2 C 96 % 1011,0 hPa 0,0 l/m 0,0 km/h (0 Bft) W-NW 292 7,6 C 8,4 C 0,0 km/h (0 Bft)
01.10.2013 04:10 8,2 C 96 % 1011,0 hPa 0,0 l/m 0,0 km/h (0 Bft) N-NW 337 7,6 C 8,4 C 0,0 km/h (0 Bft)
01.10.2013 04:15 8,2 C 96 % 1011,0 hPa 0,0 l/m 0,0 km/h (0 Bft) N-NW 337 7,6 C 8,4 C 0,0 km/h (0 Bft)
01.10.2013 04:20 8,1 C 96 % 1011,0 hPa 0,0 l/m 0,3 km/h (0 Bft) W-NW 292 7,5 C 8,4 C 0,0 km/h (0 Bft)
01.10.2013 04:25 8,1 C 96 % 1011,0 hPa 0,0 l/m 0,3 km/h (0 Bft) N-NW 337 7,5 C 8,3 C 0,0 km/h (0 Bft)
01.10.2013 04:30 8,0 C 96 % 1011,0 hPa 0,0 l/m 0,2 km/h (0 Bft) N-NW 337 7,4 C 8,3 C 0,0 km/h (0 Bft)
01.10.2013 04:35 8,0 C 96 % 1011,0 hPa 0,0 l/m 0,2 km/h (0 Bft) W-NW 292 7,4 C 8,2 C 1,6 km/h (1 Bft)
01.10.2013 04:40 8,0 C 96 % 1011,0 hPa 0,0 l/m 0,2 km/h (0 Bft) NO 45 7,4 C 8,2 C 1,9 km/h (1 Bft)
01.10.2013 04:45 8,0 C 96 % 1011,1 hPa 0,0 l/m 0,5 km/h (0 Bft) N 360 7,4 C 8,2 C 0,0 km/h (0 Bft)
01.10.2013 04:50 8,0 C 96 % 1011,1 hPa 0,0 l/m 0,5 km/h (0 Bft) N-NW 337 7,4 C 8,2 C 0,0 km/h (0 Bft)
01.10.2013 04:55 8,1 C 96 % 1011,1 hPa 0,0 l/m 0,0 km/h (0 Bft) NW 315 7,5 C 8,2 C 0,0 km/h (0 Bft)
01.10.2013 05:00 8,1 C 96 % 1011,1 hPa 0,0 l/m 0,0 km/h (0 Bft) S 180 7,5 C 8,3 C 0,0 km/h (0 Bft)
01.10.2013 05:05 8,1 C 96 % 1011,1 hPa 0,0 l/m 0,0 km/h (0 Bft) O-SO 112 7,5 C 8,3 C 0,0 km/h (0 Bft)
01.10.2013 05:10 8,1 C 96 % 1011,1 hPa 0,0 l/m 0,0 km/h (0 Bft) O-NO 67 7,5 C 8,3 C 1,8 km/h (1 Bft)
01.10.2013 05:15 8,1 C 96 % 1011,1 hPa 0,0 l/m 0,2 km/h (0 Bft) NO 45 7,5 C 8,3 C 0,0 km/h (0 Bft)
01.10.2013 05:20 8,1 C 96 % 1011,1 hPa 0,0 l/m 0,2 km/h (0 Bft) N-NW 337 7,5 C 8,3 C 0,0 km/h (0 Bft)
01.10.2013 05:25 8,1 C 96 % 1011,0 hPa 0,0 l/m 0,0 km/h (0 Bft) N 360 7,5 C 8,4 C 0,0 km/h (0 Bft)
01.10.2013 05:30 8,2 C 96 % 1011,0 hPa 0,0 l/m 0,0 km/h (0 Bft) N 360 7,6 C 8,4 C 0,0 km/h (0 Bft)
01.10.2013 05:35 8,2 C 96 % 1011,0 hPa 0,0 l/m 0,0 km/h (0 Bft) N 360 7,6 C 8,4 C 0,0 km/h (0 Bft)
01.10.2013 05:40 8,2 C 96 % 1011,0 hPa 0,0 l/m 0,0 km/h (0 Bft) W 270 7,6 C 8,4 C 0,0 km/h (0 Bft)
01.10.2013 05:45 8,2 C 96 % 1011,1 hPa 0,0 l/m 0,0 km/h (0 Bft) N 360 7,6 C 8,4 C 0,0 km/h (0 Bft)
01.10.2013 05:50 8,2 C 96 % 1011,1 hPa 0,0 l/m 0,0 km/h (0 Bft) N 360 7,6 C 8,4 C 0,0 km/h (0 Bft)
01.10.2013 05:55 8,2 C 96 % 1011,1 hPa 0,0 l/m 0,0 km/h (0 Bft) N 360 7,6 C 8,4 C 0,0 km/h (0 Bft)
01.10.2013 06:00 8,2 C 96 % 1011,1 hPa 0,0 l/m 0,0 km/h (0 Bft) O-SO 112 7,6 C 8,4 C 0,0 km/h (0 Bft)
01.10.2013 06:05 8,2 C 96 % 1011,1 hPa 0,0 l/m 0,2 km/h (0 Bft) N-NO 22 7,6 C 8,4 C 0,0 km/h (0 Bft)
01.10.2013 06:10 8,2 C 96 % 1011,1 hPa 0,0 l/m 0,2 km/h (0 Bft) N-NW 337 7,6 C 8,4 C 0,0 km/h (0 Bft)
01.10.2013 06:15 8,3 C 96 % 1011,1 hPa 0,0 l/m 0,0 km/h (0 Bft) NO 45 7,7 C 8,4 C 0,0 km/h (0 Bft)
01.10.2013 06:20 8,3 C 96 % 1011,1 hPa 0,0 l/m 0,0 km/h (0 Bft) O 90 7,7 C 8,4 C 0,0 km/h (0 Bft)
01.10.2013 06:25 8,3 C 96 % 1011,0 hPa 0,0 l/m 0,0 km/h (0 Bft) S-SW 202 7,7 C 8,5 C 0,0 km/h (0 Bft)
01.10.2013 06:30 8,3 C 96 % 1011,0 hPa 0,0 l/m 0,0 km/h (0 Bft) W-SW 247 7,7 C 8,5 C 0,0 km/h (0 Bft)
01.10.2013 06:35 8,4 C 96 % 1011,0 hPa 0,0 l/m 0,3 km/h (0 Bft) W-SW 247 7,8 C 8,5 C 1,6 km/h (1 Bft)
01.10.2013 06:40 8,4 C 96 % 1011,0 hPa 0,0 l/m 0,3 km/h (0 Bft) S-SW 202 7,8 C 8,6 C 0,0 km/h (0 Bft)
01.10.2013 06:45 8,4 C 96 % 1011,1 hPa 0,0 l/m 0,2 km/h (0 Bft) S 180 7,8 C 8,6 C 0,0 km/h (0 Bft)
01.10.2013 06:50 8,4 C 96 % 1011,1 hPa 0,0 l/m 0,0 km/h (0 Bft) S 180 7,8 C 8,6 C 0,0 km/h (0 Bft)
01.10.2013 06:55 8,3 C 96 % 1011,1 hPa 0,0 l/m 0,0 km/h (0 Bft) O 90 7,7 C 8,5 C 0,0 km/h (0 Bft)
01.10.2013 07:00 8,3 C 96 % 1011,1 hPa 0,0 l/m 0,0 km/h (0 Bft) O 90 7,7 C 8,5 C 0,0 km/h (0 Bft)
01.10.2013 07:05 8,3 C 96 % 1011,1 hPa 0,0 l/m 0,0 km/h (0 Bft) NO 45 7,7 C 8,5 C 0,0 km/h (0 Bft)
01.10.2013 07:10 8,3 C 96 % 1011,1 hPa 0,0 l/m 0,0 km/h (0 Bft) O 90 7,7 C 8,5 C 0,0 km/h (0 Bft)
01.10.2013 07:15 8,3 C 96 % 1011,1 hPa 0,0 l/m 0,0 km/h (0 Bft) S 180 7,7 C 8,5 C 0,0 km/h (0 Bft)
01.10.2013 07:20 8,4 C 96 % 1011,1 hPa 0,0 l/m 0,0 km/h (0 Bft) O-SO 112 7,8 C 8,5 C 0,0 km/h (0 Bft)
01.10.2013 07:25 8,4 C 96 % 1011,2 hPa 0,0 l/m 0,0 km/h (0 Bft) S-SO 157 7,8 C 8,5 C 1,8 km/h (1 Bft)
01.10.2013 07:30 8,4 C 96 % 1011,2 hPa 0,0 l/m 0,0 km/h (0 Bft) S 180 7,8 C 8,5 C 0,0 km/h (0 Bft)
01.10.2013 07:35 8,4 C 96 % 1011,2 hPa 0,0 l/m 0,0 km/h (0 Bft) SO 135 7,8 C 8,6 C 0,0 km/h (0 Bft)
01.10.2013 07:40 8,4 C 96 % 1011,2 hPa 0,0 l/m 0,0 km/h (0 Bft) S-SO 157 7,8 C 8,6 C 0,0 km/h (0 Bft)
01.10.2013 07:45 8,4 C 96 % 1011,3 hPa 0,0 l/m 0,0 km/h (0 Bft) O-SO 112 7,8 C 8,6 C 0,0 km/h (0 Bft)
01.10.2013 07:50 8,5 C 96 % 1011,3 hPa 0,0 l/m 0,0 km/h (0 Bft) O-SO 112 7,9 C 8,7 C 0,0 km/h (0 Bft)
01.10.2013 07:55 8,5 C 96 % 1011,3 hPa 0,0 l/m 0,0 km/h (0 Bft) O 90 7,9 C 8,7 C 0,0 km/h (0 Bft)
01.10.2013 08:00 8,5 C 96 % 1011,3 hPa 0,0 l/m 0,0 km/h (0 Bft) S 180 7,9 C 8,7 C 0,0 km/h (0 Bft)
01.10.2013 08:05 8,6 C 96 % 1011,4 hPa 0,0 l/m 0,0 km/h (0 Bft) S 180 8,0 C 8,7 C 0,0 km/h (0 Bft)
01.10.2013 08:10 8,6 C 96 % 1011,4 hPa 0,0 l/m 0,0 km/h (0 Bft) SO 135 8,0 C 8,7 C 0,0 km/h (0 Bft)
01.10.2013 08:15 8,6 C 96 % 1011,4 hPa 0,0 l/m 0,0 km/h (0 Bft) S-SW 202 8,0 C 8,8 C 0,0 km/h (0 Bft)
01.10.2013 08:20 8,6 C 96 % 1011,4 hPa 0,0 l/m 0,0 km/h (0 Bft) S 180 8,0 C 8,9 C 0,0 km/h (0 Bft)
01.10.2013 08:25 8,7 C 96 % 1011,6 hPa 0,0 l/m 0,0 km/h (0 Bft) O-SO 112 8,1 C 8,9 C 0,0 km/h (0 Bft)
01.10.2013 08:30 8,7 C 96 % 1011,6 hPa 0,0 l/m 0,5 km/h (0 Bft) SO 135 8,1 C 8,9 C 2,7 km/h (1 Bft)
01.10.2013 08:35 8,7 C 96 % 1011,6 hPa 0,0 l/m 1,1 km/h (1 Bft) S 180 8,1 C 8,9 C 3,4 km/h (1 Bft)
01.10.2013 08:40 8,7 C 96 % 1011,6 hPa 0,0 l/m 1,6 km/h (1 Bft) O-SO 112 8,1 C 8,9 C 0,0 km/h (0 Bft)
01.10.2013 08:45 8,8 C 96 % 1011,7 hPa 0,0 l/m 1,6 km/h (1 Bft) O-SO 112 8,2 C 9,0 C 4,0 km/h (1 Bft)
01.10.2013 08:50 8,8 C 96 % 1011,7 hPa 0,0 l/m 1,1 km/h (1 Bft) S-SO 157 8,2 C 9,0 C 3,4 km/h (1 Bft)
01.10.2013 08:55 8,8 C 96 % 1011,7 hPa 0,0 l/m 1,0 km/h (0 Bft) O 90 8,2 C 9,0 C 0,0 km/h (0 Bft)
01.10.2013 09:00 8,8 C 96 % 1011,7 hPa 0,0 l/m 0,5 km/h (0 Bft) SO 135 8,2 C 9,0 C 0,0 km/h (0 Bft)
01.10.2013 09:05 8,9 C 96 % 1011,9 hPa 0,0 l/m 0,0 km/h (0 Bft) S-SO 157 8,3 C 9,2 C 0,0 km/h (0 Bft)
01.10.2013 09:10 9,0 C 96 % 1011,9 hPa 0,0 l/m 0,3 km/h (0 Bft) SO 135 8,4 C 9,2 C 1,9 km/h (1 Bft)
01.10.2013 09:15 9,1 C 96 % 1011,9 hPa 0,0 l/m 0,3 km/h (0 Bft) SW 225 8,5 C 9,3 C 2,1 km/h (1 Bft)
01.10.2013 09:20 9,1 C 96 % 1011,9 hPa 0,0 l/m 0,3 km/h (0 Bft) O 90 8,5 C 9,3 C 0,0 km/h (0 Bft)
01.10.2013 09:25 9,2 C 96 % 1012,1 hPa 0,0 l/m 0,2 km/h (0 Bft) O-SO 112 8,6 C 9,6 C 0,0 km/h (0 Bft)
01.10.2013 09:30 9,4 C 96 % 1012,1 hPa 0,0 l/m 0,0 km/h (0 Bft) W-SW 247 8,8 C 9,7 C 0,0 km/h (0 Bft)
01.10.2013 09:35 9,5 C 96 % 1012,1 hPa 0,0 l/m 0,0 km/h (0 Bft) W-SW 247 8,9 C 9,9 C 0,0 km/h (0 Bft)
01.10.2013 09:40 9,5 C 96 % 1012,1 hPa 0,0 l/m 0,0 km/h (0 Bft) W-SW 247 8,9 C 10,1 C 0,0 km/h (0 Bft)
01.10.2013 09:45 9,6 C 96 % 1012,1 hPa 0,0 l/m 0,2 km/h (0 Bft) NW 315 9,0 C 10,2 C 1,8 km/h (1 Bft)
01.10.2013 09:50 9,5 C 96 % 1012,1 hPa 0,0 l/m 0,3 km/h (0 Bft) S-SW 202 8,9 C 10,3 C 2,7 km/h (1 Bft)
01.10.2013 09:55 9,5 C 96 % 1012,1 hPa 0,0 l/m 1,1 km/h (1 Bft) SW 225 8,9 C 10,3 C 2,7 km/h (1 Bft)
01.10.2013 10:00 9,6 C 96 % 1012,1 hPa 0,0 l/m 1,4 km/h (1 Bft) S-SW 202 9,0 C 10,3 C 3,1 km/h (1 Bft)
01.10.2013 10:05 9,8 C 96 % 1012,4 hPa 0,0 l/m 1,0 km/h (0 Bft) S-SO 157 9,2 C 10,3 C 1,6 km/h (1 Bft)
01.10.2013 10:10 9,8 C 96 % 1012,4 hPa 0,0 l/m 0,5 km/h (0 Bft) S-SO 157 9,2 C 10,5 C 0,0 km/h (0 Bft)
01.10.2013 10:15 9,7 C 96 % 1012,4 hPa 0,0 l/m 0,2 km/h (0 Bft) S-SO 157 9,1 C 10,7 C 0,0 km/h (0 Bft)
01.10.2013 10:20 10,0 C 96 % 1012,4 hPa 0,0 l/m 0,2 km/h (0 Bft) O-SO 112 9,4 C 10,9 C 2,1 km/h (1 Bft)
01.10.2013 10:25 10,1 C 96 % 1012,5 hPa 0,0 l/m 0,6 km/h (0 Bft) W-SW 247 9,5 C 11,3 C 1,9 km/h (1 Bft)
01.10.2013 10:30 10,2 C 96 % 1012,5 hPa 0,0 l/m 0,8 km/h (0 Bft) S 180 9,6 C 11,3 C 0,0 km/h (0 Bft)
01.10.2013 10:35 10,3 C 96 % 1012,5 hPa 0,0 l/m 1,1 km/h (1 Bft) S 180 9,7 C 11,4 C 2,7 km/h (1 Bft)
01.10.2013 10:40 10,5 C 96 % 1012,5 hPa 0,0 l/m 1,4 km/h (1 Bft) SO 135 9,9 C 11,5 C 2,3 km/h (1 Bft)
01.10.2013 10:45 10,3 C 96 % 1012,7 hPa 0,0 l/m 1,0 km/h (0 Bft) NW 315 9,7 C 11,6 C 5,1 km/h (1 Bft)
01.10.2013 10:50 10,3 C 96 % 1012,7 hPa 0,0 l/m 0,5 km/h (0 Bft) S-SO 157 9,7 C 11,7 C 2,7 km/h (1 Bft)
01.10.2013 10:55 10,2 C 96 % 1012,7 hPa 0,0 l/m 1,1 km/h (1 Bft) O-NO 67 9,6 C 11,5 C 1,8 km/h (1 Bft)
01.10.2013 11:00 10,2 C 96 % 1012,7 hPa 0,0 l/m 1,8 km/h (1 Bft) S 180 9,6 C 11,5 C 4,8 km/h (1 Bft)
01.10.2013 11:05 10,1 C 96 % 1012,8 hPa 0,0 l/m 2,1 km/h (1 Bft) O 90 9,5 C 11,4 C 2,3 km/h (1 Bft)
01.10.2013 11:10 9,9 C 96 % 1012,8 hPa 0,0 l/m 1,8 km/h (1 Bft) O 90 9,3 C 11,4 C 0,0 km/h (0 Bft)
01.10.2013 11:15 9,7 C 96 % 1012,8 hPa 0,0 l/m 1,0 km/h (0 Bft) O 90 9,1 C 11,2 C 0,0 km/h (0 Bft)
01.10.2013 11:20 9,5 C 96 % 1012,8 hPa 0,0 l/m 0,8 km/h (0 Bft) O-SO 112 8,9 C 11,0 C 2,3 km/h (1 Bft)
01.10.2013 11:25 9,6 C 96 % 1012,8 hPa 0,0 l/m 0,3 km/h (0 Bft) O 90 9,0 C 10,9 C 0,0 km/h (0 Bft)
01.10.2013 11:30 9,6 C 96 % 1012,8 hPa 0,0 l/m 0,3 km/h (0 Bft) O 90 9,0 C 11,0 C 0,0 km/h (0 Bft)
01.10.2013 11:35 9,6 C 96 % 1012,8 hPa 0,0 l/m 0,8 km/h (0 Bft) O 90 9,0 C 11,1 C 0,0 km/h (0 Bft)
01.10.2013 11:40 9,8 C 96 % 1012,8 hPa 0,0 l/m 0,6 km/h (0 Bft) O 90 9,2 C 11,3 C 0,0 km/h (0 Bft)
01.10.2013 11:45 10,0 C 96 % 1013,0 hPa 0,0 l/m 0,3 km/h (0 Bft) S-SO 157 9,4 C 11,5 C 2,3 km/h (1 Bft)
01.10.2013 11:50 10,4 C 96 % 1013,0 hPa 0,0 l/m 0,8 km/h (0 Bft) S-SW 202 9,8 C 11,9 C 2,1 km/h (1 Bft)
01.10.2013 11:55 10,7 C 96 % 1013,0 hPa 0,0 l/m 1,1 km/h (1 Bft) W-SW 247 10,1 C 12,3 C 2,9 km/h (1 Bft)
01.10.2013 12:00 10,7 C 96 % 1013,0 hPa 0,0 l/m 1,3 km/h (1 Bft) S-SO 157 10,1 C 12,3 C 3,4 km/h (1 Bft)
01.10.2013 12:05 10,7 C 96 % 1013,2 hPa 0,0 l/m 2,1 km/h (1 Bft) S-SW 202 10,1 C 12,4 C 4,3 km/h (1 Bft)
01.10.2013 12:10 10,7 C 95 % 1013,2 hPa 0,0 l/m 1,8 km/h (1 Bft) S 180 9,9 C 12,4 C 0,0 km/h (0 Bft)
01.10.2013 12:15 10,5 C 95 % 1013,2 hPa 0,0 l/m 1,3 km/h (1 Bft) SW 225 9,7 C 12,7 C 0,0 km/h (0 Bft)
01.10.2013 12:20 10,6 C 95 % 1013,2 hPa 0,0 l/m 1,9 km/h (1 Bft) S 180 9,8 C 12,5 C 4,7 km/h (1 Bft)
01.10.2013 12:25 11,0 C 95 % 1013,2 hPa 0,0 l/m 3,5 km/h (1 Bft) S 180 10,2 C 12,6 C 6,8 km/h (2 Bft)
01.10.2013 12:30 10,8 C 94 % 1013,2 hPa 0,0 l/m 3,5 km/h (1 Bft) S-SW 202 9,9 C 12,6 C 2,6 km/h (1 Bft)
01.10.2013 12:35 10,7 C 94 % 1013,2 hPa 0,0 l/m 2,9 km/h (1 Bft) SO 135 9,8 C 12,3 C 0,0 km/h (0 Bft)
01.10.2013 12:40 10,7 C 94 % 1013,2 hPa 0,0 l/m 1,4 km/h (1 Bft) S-SW 202 9,8 C 12,3 C 0,0 km/h (0 Bft)
01.10.2013 12:45 10,3 C 93 % 1013,4 hPa 0,0 l/m 0,3 km/h (0 Bft) O 90 9,2 C 12,2 C 0,0 km/h (0 Bft)
01.10.2013 12:50 10,1 C 93 % 1013,4 hPa 0,0 l/m 0,3 km/h (0 Bft) O-SO 112 9,0 C 12,2 C 0,0 km/h (0 Bft)
01.10.2013 12:55 9,9 C 93 % 1013,4 hPa 0,0 l/m 0,3 km/h (0 Bft) O 90 8,8 C 12,1 C 2,6 km/h (1 Bft)
01.10.2013 13:00 9,8 C 92 % 1013,4 hPa 0,0 l/m 0,5 km/h (0 Bft) O 90 8,6 C 11,9 C 0,0 km/h (0 Bft)
01.10.2013 13:05 9,8 C 92 % 1013,3 hPa 0,0 l/m 0,5 km/h (0 Bft) S 180 8,6 C 11,7 C 0,0 km/h (0 Bft)
01.10.2013 13:10 10,1 C 92 % 1013,3 hPa 0,0 l/m 0,3 km/h (0 Bft) O 90 8,9 C 11,7 C 0,0 km/h (0 Bft)
01.10.2013 13:15 10,6 C 92 % 1013,3 hPa 0,0 l/m 0,6 km/h (0 Bft) S-SW 202 9,4 C 12,0 C 2,6 km/h (1 Bft)
01.10.2013 13:20 10,7 C 92 % 1013,3 hPa 0,0 l/m 1,6 km/h (1 Bft) SW 225 9,5 C 12,0 C 3,7 km/h (1 Bft)
01.10.2013 13:25 10,9 C 91 % 1013,4 hPa 0,0 l/m 1,8 km/h (1 Bft) W-SW 247 9,5 C 12,2 C 0,0 km/h (0 Bft)
01.10.2013 13:30 11,1 C 91 % 1013,4 hPa 0,0 l/m 1,1 km/h (1 Bft) S 180 9,7 C 12,6 C 0,0 km/h (0 Bft)
01.10.2013 13:35 11,4 C 91 % 1013,4 hPa 0,0 l/m 0,2 km/h (0 Bft) W-SW 247 10,0 C 13,1 C 0,0 km/h (0 Bft)
01.10.2013 13:40 11,9 C 90 % 1013,4 hPa 0,0 l/m 0,0 km/h (0 Bft) S 180 10,3 C 13,4 C 0,0 km/h (0 Bft)
01.10.2013 13:45 12,0 C 89 % 1013,7 hPa 0,0 l/m 0,5 km/h (0 Bft) SO 135 10,2 C 14,0 C 0,0 km/h (0 Bft)
01.10.2013 13:50 12,1 C 89 % 1013,7 hPa 0,0 l/m 0,8 km/h (0 Bft) SO 135 10,3 C 14,4 C 1,8 km/h (1 Bft)
01.10.2013 13:55 11,9 C 88 % 1013,7 hPa 0,0 l/m 1,1 km/h (1 Bft) S 180 10,0 C 14,5 C 1,9 km/h (1 Bft)
01.10.2013 14:00 11,5 C 88 % 1013,7 hPa 0,0 l/m 1,4 km/h (1 Bft) O-SO 112 9,6 C 14,1 C 0,0 km/h (0 Bft)
01.10.2013 14:05 11,4 C 88 % 1013,8 hPa 0,0 l/m 1,6 km/h (1 Bft) S-SO 157 9,5 C 13,6 C 2,6 km/h (1 Bft)
01.10.2013 14:10 11,0 C 88 % 1013,8 hPa 0,0 l/m 1,1 km/h (1 Bft) O 90 9,1 C 13,2 C 2,1 km/h (1 Bft)
01.10.2013 14:15 10,3 C 88 % 1013,8 hPa 0,0 l/m 0,8 km/h (0 Bft) O 90 8,4 C 12,6 C 0,0 km/h (0 Bft)
01.10.2013 14:20 10,1 C 89 % 1013,8 hPa 0,0 l/m 0,6 km/h (0 Bft) O 90 8,4 C 12,0 C 0,0 km/h (0 Bft)
01.10.2013 14:25 10,1 C 89 % 1013,2 hPa 0,0 l/m 0,5 km/h (0 Bft) O-NO 67 8,4 C 11,5 C 0,0 km/h (0 Bft)
01.10.2013 14:30 10,0 C 90 % 1013,2 hPa 0,0 l/m 0,2 km/h (0 Bft) NO 45 8,4 C 11,4 C 0,0 km/h (0 Bft)
01.10.2013 14:35 10,1 C 90 % 1013,2 hPa 0,0 l/m 1,3 km/h (1 Bft) O 90 8,5 C 11,3 C 2,1 km/h (1 Bft)
01.10.2013 14:40 10,1 C 90 % 1013,2 hPa 0,0 l/m 1,8 km/h (1 Bft) O-NO 67 8,5 C 11,3 C 2,3 km/h (1 Bft)
01.10.2013 14:45 10,2 C 91 % 1013,2 hPa 0,0 l/m 1,3 km/h (1 Bft) NO 45 8,8 C 11,3 C 1,6 km/h (1 Bft)
01.10.2013 14:50 10,2 C 91 % 1013,2 hPa 0,0 l/m 0,8 km/h (0 Bft) O-NO 67 8,8 C 11,3 C 0,0 km/h (0 Bft)
01.10.2013 14:55 10,2 C 91 % 1013,2 hPa 0,0 l/m 0,3 km/h (0 Bft) O-NO 67 8,8 C 11,3 C 0,0 km/h (0 Bft)
01.10.2013 15:00 10,3 C 92 % 1013,2 hPa 0,0 l/m 0,6 km/h (0 Bft) O 90 9,1 C 11,4 C 1,8 km/h (1 Bft)
01.10.2013 15:05 10,4 C 92 % 1013,4 hPa 0,0 l/m 1,3 km/h (1 Bft) O 90 9,2 C 11,4 C 0,0 km/h (0 Bft)
01.10.2013 15:10 10,5 C 92 % 1013,4 hPa 0,0 l/m 1,0 km/h (0 Bft) O-NO 67 9,3 C 11,5 C 0,0 km/h (0 Bft)
01.10.2013 15:15 10,7 C 92 % 1013,4 hPa 0,0 l/m 0,2 km/h (0 Bft) O-NO 67 9,5 C 11,9 C 0,0 km/h (0 Bft)
01.10.2013 15:20 10,7 C 92 % 1013,4 hPa 0,0 l/m 0,0 km/h (0 Bft) O 90 9,5 C 12,0 C 0,0 km/h (0 Bft)
01.10.2013 15:25 10,6 C 92 % 1013,5 hPa 0,0 l/m 0,0 km/h (0 Bft) O 90 9,4 C 12,2 C 0,0 km/h (0 Bft)
01.10.2013 15:30 10,5 C 92 % 1013,5 hPa 0,0 l/m 0,0 km/h (0 Bft) O-NO 67 9,3 C 12,1 C 0,0 km/h (0 Bft)
01.10.2013 15:35 10,4 C 92 % 1013,5 hPa 0,0 l/m 0,2 km/h (0 Bft) O 90 9,2 C 11,9 C 0,0 km/h (0 Bft)
01.10.2013 15:40 10,2 C 92 % 1013,5 hPa 0,0 l/m 0,2 km/h (0 Bft) O-NO 67 9,0 C 11,7 C 0,0 km/h (0 Bft)
01.10.2013 15:45 10,2 C 92 % 1013,4 hPa 0,0 l/m 0,8 km/h (0 Bft) O 90 9,0 C 11,5 C 2,1 km/h (1 Bft)
01.10.2013 15:50 10,2 C 92 % 1013,4 hPa 0,0 l/m 1,1 km/h (1 Bft) O-NO 67 9,0 C 11,4 C 0,0 km/h (0 Bft)
01.10.2013 15:55 10,4 C 92 % 1013,4 hPa 0,0 l/m 0,6 km/h (0 Bft) O-NO 67 9,2 C 11,5 C 0,0 km/h (0 Bft)
01.10.2013 16:00 10,6 C 92 % 1013,4 hPa 0,0 l/m 0,2 km/h (0 Bft) NO 45 9,4 C 11,7 C 0,0 km/h (0 Bft)
01.10.2013 16:05 10,6 C 92 % 1013,6 hPa 0,0 l/m 0,3 km/h (0 Bft) N 360 9,4 C 11,8 C 2,4 km/h (1 Bft)
01.10.2013 16:10 10,8 C 92 % 1013,6 hPa 0,0 l/m 0,6 km/h (0 Bft) NO 45 9,6 C 11,8 C 0,0 km/h (0 Bft)
01.10.2013 16:15 10,7 C 92 % 1013,6 hPa 0,0 l/m 0,5 km/h (0 Bft) N 360 9,5 C 11,8 C 0,0 km/h (0 Bft)
01.10.2013 16:20 10,5 C 92 % 1013,6 hPa 0,0 l/m 0,5 km/h (0 Bft) NO 45 9,3 C 11,8 C 2,1 km/h (1 Bft)
01.10.2013 16:25 10,7 C 92 % 1013,8 hPa 0,0 l/m 0,5 km/h (0 Bft) O-NO 67 9,5 C 11,7 C 1,9 km/h (1 Bft)
01.10.2013 16:30 10,8 C 92 % 1013,8 hPa 0,0 l/m 0,5 km/h (0 Bft) N-NO 22 9,6 C 11,8 C 2,4 km/h (1 Bft)
01.10.2013 16:35 10,9 C 92 % 1013,8 hPa 0,0 l/m 0,3 km/h (0 Bft) N 360 9,7 C 11,9 C 0,0 km/h (0 Bft)
01.10.2013 16:40 10,8 C 92 % 1013,8 hPa 0,0 l/m 0,3 km/h (0 Bft) N-NO 22 9,6 C 12,0 C 0,0 km/h (0 Bft)
01.10.2013 16:45 10,9 C 92 % 1013,8 hPa 0,0 l/m 0,2 km/h (0 Bft) O-NO 67 9,7 C 12,1 C 0,0 km/h (0 Bft)
01.10.2013 16:50 10,9 C 92 % 1013,8 hPa 0,0 l/m 0,2 km/h (0 Bft) O 90 9,7 C 12,0 C 0,0 km/h (0 Bft)
01.10.2013 16:55 10,6 C 92 % 1013,8 hPa 0,0 l/m 0,0 km/h (0 Bft) NO 45 9,4 C 11,9 C 0,0 km/h (0 Bft)
01.10.2013 17:00 10,5 C 92 % 1013,8 hPa 0,0 l/m 0,0 km/h (0 Bft) O 90 9,3 C 11,7 C 0,0 km/h (0 Bft)
01.10.2013 17:05 10,4 C 92 % 1013,8 hPa 0,0 l/m 0,2 km/h (0 Bft) O 90 9,2 C 11,5 C 0,0 km/h (0 Bft)
01.10.2013 17:10 10,2 C 92 % 1013,8 hPa 0,0 l/m 1,0 km/h (0 Bft) O 90 9,0 C 11,3 C 2,3 km/h (1 Bft)
01.10.2013 17:15 10,0 C 92 % 1013,8 hPa 0,0 l/m 1,3 km/h (1 Bft) O 90 8,8 C 11,0 C 0,0 km/h (0 Bft)
01.10.2013 17:20 9,9 C 92 % 1013,8 hPa 0,0 l/m 0,8 km/h (0 Bft) O 90 8,7 C 10,8 C 0,0 km/h (0 Bft)
01.10.2013 17:25 9,8 C 92 % 1014,1 hPa 0,0 l/m 1,8 km/h (1 Bft) W 270 8,6 C 10,6 C 8,4 km/h (2 Bft)
01.10.2013 17:30 9,7 C 91 % 1014,1 hPa 0,0 l/m 2,7 km/h (1 Bft) W-SW 247 8,3 C 10,4 C 2,3 km/h (1 Bft)
01.10.2013 17:35 9,6 C 90 % 1014,1 hPa 0,0 l/m 2,9 km/h (1 Bft) N-NW 337 8,0 C 10,2 C 2,7 km/h (1 Bft)
01.10.2013 17:40 9,5 C 90 % 1014,1 hPa 0,0 l/m 1,8 km/h (1 Bft) S-SW 202 7,9 C 10,1 C 2,1 km/h (1 Bft)
01.10.2013 17:45 9,5 C 90 % 1014,2 hPa 0,0 l/m 1,4 km/h (1 Bft) W-NW 292 7,9 C 10,1 C 0,0 km/h (0 Bft)
01.10.2013 17:50 9,4 C 90 % 1014,2 hPa 0,0 l/m 1,4 km/h (1 Bft) N-NW 337 7,8 C 10,0 C 2,4 km/h (1 Bft)
01.10.2013 17:55 9,3 C 90 % 1014,2 hPa 0,0 l/m 1,4 km/h (1 Bft) NO 45 7,7 C 9,9 C 3,5 km/h (1 Bft)
01.10.2013 18:00 9,2 C 91 % 1014,2 hPa 0,0 l/m 1,1 km/h (1 Bft) O 90 7,8 C 9,8 C 0,0 km/h (0 Bft)
01.10.2013 18:05 9,2 C 91 % 1014,4 hPa 0,0 l/m 0,3 km/h (0 Bft) O 90 7,8 C 9,6 C 0,0 km/h (0 Bft)
01.10.2013 18:10 9,1 C 91 % 1014,4 hPa 0,0 l/m 0,2 km/h (0 Bft) O 90 7,7 C 9,6 C 0,0 km/h (0 Bft)
01.10.2013 18:15 9,0 C 91 % 1014,4 hPa 0,0 l/m 0,2 km/h (0 Bft) O 90 7,6 C 9,6 C 0,0 km/h (0 Bft)
01.10.2013 18:20 9,0 C 92 % 1014,4 hPa 0,0 l/m 0,3 km/h (0 Bft) O 90 7,8 C 9,5 C 0,0 km/h (0 Bft)
01.10.2013 18:25 8,9 C 92 % 1014,6 hPa 0,0 l/m 0,3 km/h (0 Bft) O 90 7,7 C 9,3 C 1,8 km/h (1 Bft)
01.10.2013 18:30 8,9 C 92 % 1014,6 hPa 0,0 l/m 0,6 km/h (0 Bft) N-NW 337 7,7 C 9,3 C 3,4 km/h (1 Bft)
01.10.2013 18:35 8,9 C 92 % 1014,6 hPa 0,0 l/m 0,8 km/h (0 Bft) O-NO 67 7,7 C 9,3 C 2,3 km/h (1 Bft)
01.10.2013 18:40 8,9 C 92 % 1014,6 hPa 0,0 l/m 0,6 km/h (0 Bft) O 90 7,7 C 9,2 C 1,9 km/h (1 Bft)
01.10.2013 18:45 8,8 C 92 % 1014,7 hPa 0,0 l/m 0,6 km/h (0 Bft) O 90 7,6 C 9,0 C 1,6 km/h (1 Bft)
01.10.2013 18:50 8,7 C 92 % 1014,7 hPa 0,0 l/m 0,8 km/h (0 Bft) O 90 7,5 C 9,0 C 2,3 km/h (1 Bft)
01.10.2013 18:55 8,7 C 92 % 1014,7 hPa 0,0 l/m 1,0 km/h (0 Bft) N-NW 337 7,5 C 8,9 C 0,0 km/h (0 Bft)
01.10.2013 19:00 8,6 C 93 % 1014,7 hPa 0,0 l/m 0,8 km/h (0 Bft) N-NO 22 7,5 C 8,8 C 0,0 km/h (0 Bft)
01.10.2013 19:05 8,6 C 93 % 1014,9 hPa 0,0 l/m 0,5 km/h (0 Bft) N-NO 22 7,5 C 8,8 C 0,0 km/h (0 Bft)
01.10.2013 19:10 8,6 C 93 % 1014,9 hPa 0,0 l/m 0,3 km/h (0 Bft) O-NO 67 7,5 C 8,8 C 1,6 km/h (1 Bft)
01.10.2013 19:15 8,6 C 93 % 1014,9 hPa 0,0 l/m 1,1 km/h (1 Bft) N-NO 22 7,5 C 8,8 C 0,0 km/h (0 Bft)
01.10.2013 19:20 8,7 C 93 % 1014,9 hPa 0,0 l/m 1,1 km/h (1 Bft) O-NO 67 7,6 C 8,8 C 1,6 km/h (1 Bft)
01.10.2013 19:25 8,7 C 93 % 1014,9 hPa 0,0 l/m 0,5 km/h (0 Bft) O 90 7,6 C 8,8 C 1,9 km/h (1 Bft)
01.10.2013 19:30 8,7 C 93 % 1014,9 hPa 0,0 l/m 0,5 km/h (0 Bft) NO 45 7,6 C 8,9 C 0,0 km/h (0 Bft)
01.10.2013 19:35 8,6 C 93 % 1014,9 hPa 0,0 l/m 0,6 km/h (0 Bft) N-NO 22 7,5 C 8,9 C 2,7 km/h (1 Bft)
01.10.2013 19:40 8,6 C 93 % 1014,9 hPa 0,0 l/m 0,6 km/h (0 Bft) O-SO 112 7,5 C 8,9 C 0,0 km/h (0 Bft)
01.10.2013 19:45 8,7 C 93 % 1015,1 hPa 0,0 l/m 0,3 km/h (0 Bft) W-NW 292 7,6 C 8,9 C 0,0 km/h (0 Bft)
01.10.2013 19:50 8,7 C 93 % 1015,1 hPa 0,0 l/m 0,3 km/h (0 Bft) N-NW 337 7,6 C 8,9 C 0,0 km/h (0 Bft)
01.10.2013 19:55 8,6 C 93 % 1015,1 hPa 0,0 l/m 1,6 km/h (1 Bft) W-NW 292 7,5 C 9,0 C 2,6 km/h (1 Bft)
01.10.2013 20:00 8,6 C 93 % 1015,1 hPa 0,0 l/m 1,6 km/h (1 Bft) N 360 7,5 C 8,9 C 0,0 km/h (0 Bft)
01.10.2013 20:05 8,5 C 93 % 1015,4 hPa 0,0 l/m 1,3 km/h (1 Bft) W 270 7,4 C 8,9 C 0,0 km/h (0 Bft)
01.10.2013 20:10 8,5 C 93 % 1015,4 hPa 0,0 l/m 1,1 km/h (1 Bft) W 270 7,4 C 8,8 C 3,7 km/h (1 Bft)
01.10.2013 20:15 8,5 C 93 % 1015,4 hPa 0,0 l/m 1,1 km/h (1 Bft) N-NO 22 7,4 C 8,7 C 0,0 km/h (0 Bft)
01.10.2013 20:20 8,4 C 93 % 1015,4 hPa 0,0 l/m 1,1 km/h (1 Bft) O 90 7,3 C 8,7 C 0,0 km/h (0 Bft)
01.10.2013 20:25 8,4 C 93 % 1015,4 hPa 0,0 l/m 0,2 km/h (0 Bft) NW 315 7,3 C 8,7 C 3,5 km/h (1 Bft)
01.10.2013 20:30 8,4 C 93 % 1015,4 hPa 0,0 l/m 0,6 km/h (0 Bft) NO 45 7,3 C 8,7 C 0,0 km/h (0 Bft)
01.10.2013 20:35 8,4 C 93 % 1015,4 hPa 0,0 l/m 0,5 km/h (0 Bft) O 90 7,3 C 8,7 C 0,0 km/h (0 Bft)
01.10.2013 20:40 8,4 C 93 % 1015,4 hPa 0,0 l/m 0,0 km/h (0 Bft) O 90 7,3 C 8,7 C 0,0 km/h (0 Bft)
01.10.2013 20:45 8,3 C 93 % 1015,5 hPa 0,0 l/m 0,2 km/h (0 Bft) W-NW 292 7,2 C 8,6 C 0,0 km/h (0 Bft)
01.10.2013 20:50 8,3 C 93 % 1015,5 hPa 0,0 l/m 0,2 km/h (0 Bft) NO 45 7,2 C 8,6 C 0,0 km/h (0 Bft)
01.10.2013 20:55 8,3 C 93 % 1015,5 hPa 0,0 l/m 0,2 km/h (0 Bft) NO 45 7,2 C 8,5 C 0,0 km/h (0 Bft)
01.10.2013 21:00 8,3 C 93 % 1015,5 hPa 0,0 l/m 0,0 km/h (0 Bft) NO 45 7,2 C 8,5 C 0,0 km/h (0 Bft)
01.10.2013 21:05 8,3 C 93 % 1015,9 hPa 0,0 l/m 0,0 km/h (0 Bft) N-NO 22 7,2 C 8,5 C 0,0 km/h (0 Bft)
01.10.2013 21:10 8,3 C 93 % 1015,9 hPa 0,0 l/m 0,2 km/h (0 Bft) NO 45 7,2 C 8,5 C 0,0 km/h (0 Bft)
01.10.2013 21:15 8,3 C 93 % 1015,9 hPa 0,0 l/m 1,0 km/h (0 Bft) N-NW 337 7,2 C 8,6 C 2,4 km/h (1 Bft)
01.10.2013 21:20 8,3 C 93 % 1015,9 hPa 0,0 l/m 1,8 km/h (1 Bft) W-NW 292 7,2 C 8,6 C 1,9 km/h (1 Bft)
01.10.2013 21:25 8,3 C 93 % 1016,1 hPa 0,0 l/m 1,6 km/h (1 Bft) N 360 7,2 C 8,5 C 1,6 km/h (1 Bft)
01.10.2013 21:30 8,3 C 93 % 1016,1 hPa 0,0 l/m 0,6 km/h (0 Bft) N-NW 337 7,2 C 8,5 C 2,1 km/h (1 Bft)
01.10.2013 21:35 8,2 C 93 % 1016,1 hPa 0,0 l/m 0,6 km/h (0 Bft) N-NO 22 7,1 C 8,5 C 1,8 km/h (1 Bft)
01.10.2013 21:40 8,2 C 93 % 1016,1 hPa 0,0 l/m 1,0 km/h (0 Bft) N-NO 22 7,1 C 8,4 C 3,1 km/h (1 Bft)
01.10.2013 21:45 8,2 C 93 % 1015,9 hPa 0,0 l/m 1,1 km/h (1 Bft) N-NO 22 7,1 C 8,4 C 4,0 km/h (1 Bft)
01.10.2013 21:50 8,1 C 93 % 1015,9 hPa 0,0 l/m 1,4 km/h (1 Bft) N-NW 337 7,0 C 8,4 C 2,1 km/h (1 Bft)
01.10.2013 21:55 8,1 C 93 % 1015,9 hPa 0,0 l/m 1,8 km/h (1 Bft) N-NW 337 7,0 C 8,4 C 5,1 km/h (1 Bft)
01.10.2013 22:00 8,0 C 93 % 1015,9 hPa 0,0 l/m 1,4 km/h (1 Bft) N-NO 22 6,9 C 8,4 C 0,0 km/h (0 Bft)
01.10.2013 22:05 7,9 C 93 % 1016,1 hPa 0,0 l/m 1,9 km/h (1 Bft) NW 315 6,8 C 8,3 C 3,1 km/h (1 Bft)
01.10.2013 22:10 7,9 C 93 % 1016,1 hPa 0,0 l/m 1,9 km/h (1 Bft) W 270 6,8 C 8,2 C 1,8 km/h (1 Bft)
01.10.2013 22:15 7,8 C 93 % 1016,1 hPa 0,0 l/m 1,3 km/h (1 Bft) N-NO 22 6,7 C 8,1 C 0,0 km/h (0 Bft)
01.10.2013 22:20 7,8 C 93 % 1016,1 hPa 0,0 l/m 1,0 km/h (0 Bft) NO 45 6,7 C 8,1 C 3,9 km/h (1 Bft)
01.10.2013 22:25 7,8 C 93 % 1016,1 hPa 0,0 l/m 1,3 km/h (1 Bft) W-NW 292 6,7 C 8,1 C 2,4 km/h (1 Bft)
01.10.2013 22:30 7,8 C 93 % 1016,1 hPa 0,0 l/m 1,6 km/h (1 Bft) NW 315 6,7 C 8,1 C 1,9 km/h (1 Bft)
01.10.2013 22:35 7,7 C 93 % 1016,1 hPa 0,0 l/m 1,9 km/h (1 Bft) N-NW 337 6,6 C 8,0 C 1,9 km/h (1 Bft)
01.10.2013 22:40 7,7 C 93 % 1016,1 hPa 0,0 l/m 2,3 km/h (1 Bft) W-NW 292 6,6 C 8,0 C 2,9 km/h (1 Bft)
01.10.2013 22:45 7,6 C 93 % 1016,1 hPa 0,0 l/m 1,9 km/h (1 Bft) NW 315 6,5 C 7,9 C 3,4 km/h (1 Bft)
01.10.2013 22:50 7,6 C 93 % 1016,1 hPa 0,0 l/m 2,1 km/h (1 Bft) N-NW 337 6,5 C 7,8 C 2,4 km/h (1 Bft)
01.10.2013 22:55 7,6 C 93 % 1016,1 hPa 0,0 l/m 1,8 km/h (1 Bft) N 360 6,5 C 7,8 C 5,1 km/h (1 Bft)
01.10.2013 23:00 7,6 C 93 % 1016,1 hPa 0,0 l/m 1,6 km/h (1 Bft) W-NW 292 6,5 C 7,8 C 4,8 km/h (1 Bft)
01.10.2013 23:05 7,6 C 93 % 1016,2 hPa 0,0 l/m 1,6 km/h (1 Bft) N-NW 337 6,5 C 7,8 C 2,7 km/h (1 Bft)
01.10.2013 23:10 7,6 C 93 % 1016,2 hPa 0,0 l/m 2,3 km/h (1 Bft) N 360 6,5 C 7,8 C 5,3 km/h (1 Bft)
01.10.2013 23:15 7,5 C 93 % 1016,2 hPa 0,0 l/m 2,6 km/h (1 Bft) W-NW 292 6,4 C 7,8 C 2,7 km/h (1 Bft)
01.10.2013 23:20 7,5 C 93 % 1016,2 hPa 0,0 l/m 2,3 km/h (1 Bft) W-NW 292 6,4 C 7,7 C 4,3 km/h (1 Bft)
01.10.2013 23:25 7,4 C 93 % 1016,1 hPa 0,0 l/m 1,6 km/h (1 Bft) N 360 6,3 C 7,6 C 0,0 km/h (0 Bft)
01.10.2013 23:30 7,3 C 93 % 1016,1 hPa 0,0 l/m 1,0 km/h (0 Bft) N-NO 22 6,2 C 7,5 C 0,0 km/h (0 Bft)
01.10.2013 23:35 7,2 C 93 % 1016,1 hPa 0,0 l/m 0,0 km/h (0 Bft) N 360 6,1 C 7,4 C 0,0 km/h (0 Bft)
01.10.2013 23:40 7,2 C 93 % 1016,1 hPa 0,0 l/m 0,0 km/h (0 Bft) N 360 6,1 C 7,3 C 0,0 km/h (0 Bft)
01.10.2013 23:45 7,2 C 93 % 1016,2 hPa 0,0 l/m 0,0 km/h (0 Bft) N-NO 22 6,1 C 7,2 C 0,0 km/h (0 Bft)
01.10.2013 23:50 7,2 C 93 % 1016,2 hPa 0,0 l/m 0,0 km/h (0 Bft) NO 45 6,1 C 7,2 C 0,0 km/h (0 Bft)
01.10.2013 23:55 7,2 C 93 % 1016,2 hPa 0,0 l/m 0,2 km/h (0 Bft) N-NW 337 6,1 C 7,3 C 1,9 km/h (1 Bft)
_ Min-Zeit 23:55 14:15 06:40 - 23:50 - - 23:55 23:50 23:50
Minimum _ 7,2 C 88 % 1011,0 hPa - 0,0 km/h (0 Bft) - - 6,1 C 7,2 C 0,0 km/h (0 Bft)
_ Max-Zeit 13:50 12:05 23:55 23:55 12:30 - - 13:50 13:55 17:25
Maximum _ 12,1 C 96 % 1016,2 hPa 0,0 l/m 3,5 km/h
S-SW (1 Bft)
- - 10,3 C 14,5 C 8,4 km/h
W (2 Bft)
Durchschnitt _ 8,9 C 94 % 1013,0 hPa #0,0 l/m 0,6 km/h (0 Bft) O - 8,0 C 9,6 C 0,9 km/h (0 Bft)